AirNav   Duncan Aviation - Near you to keep you flying
 
 631 users online  

1I5 Freehold Airport
Freehold, New York, USA

GOING TO FREEHOLD?


FAA INFORMATION EFFECTIVE 26 JANUARY 2023

Location

FAA Identifier: 1I5
Lat/Long: 42-21-50.4000N 074-03-54.1000W
42-21.840000N 074-03.901667W
42.3640000,-74.0650278
(estimated)
Elevation: 440 ft. / 134 m (estimated)
Variation: 14W (1985)
From city: 1 mile NW of FREEHOLD, NY
Time zone: UTC -5 (UTC -4 during Daylight Saving Time)
Zip code: 12431

Airport Operations

Airport use: Open to the public
Activation date: 07/1969
Control tower: no
ARTCC: BOSTON CENTER
FSS: BURLINGTON FLIGHT SERVICE STATION
NOTAMs facility: BTV (NOTAM-D service available)
Attendance: APR-DEC 0900-DUSK
Wind indicator: yes
Segmented circle: no

Airport Communications

CTAF: 122.85
WX AWOS-3 at 1B1 (16 nm E): 133.525 (518-828-2577)

Nearby radio navigation aids

VOR radial/distance  VOR name  Freq  Var
ALBr220/25.7ALBANY VORTAC115.3013W

 
NDB name  Hdg/Dist  Freq  Var  ID
PHILMONT307/16.627213WPFH .--. ..-. ....
HUNTER205/30.035614WHEU .... . ..-
JOHNSTOWN177/39.952314WJJH .--- .--- ....

Airport Services

Parking: tiedowns
Airframe service: NONE
Powerplant service: NONE

Runway Information

Runway 12/30

Dimensions: 2275 x 22 ft. / 693 x 7 m
100 FT BY 2640 FT TURF RWY ADJACENT TO PAVED RWY (S EDGE) BEGINNING AT 735 FT FROM RWY 30 THLD.
Surface: asphalt, in poor condition
SURFACE BROKEN & SPALLING FOR ENTIRE LENGTH.
RUNWAY 12  RUNWAY 30
Latitude: 42-21.903982N42-21.777210N
Longitude: 074-04.139745W074-03.664357W
Elevation: 437.0 ft.421.0 ft.
Traffic pattern: leftleft
Runway heading: 124 magnetic, 110 true304 magnetic, 290 true
Markings: nonenone
Obstructions: 67 ft. trees, 812 ft. from runway, 86 ft. right of centerline, 9:1 slope to clear
10 FT HIGH FENCE APPROX. PARALLEL TO RWY, 42 FT LT., 50 - 700 FT FRM THSLD.
31 ft. trees, marked, 315 ft. from runway, 35 ft. left of centerline, 3:1 slope to clear
31 FT TREES IN APCH TO RWY 315 FT FM END OF RWY, 35 FT LEFT OF CNTRLN.

Airport Ownership and Management from official FAA records

Ownership: Privately-owned
Owner: FREEHOLD AIRPORT LLC.
C/O GERARD CALAMARI, 115 BURDEN LAKE ROAD
AVERILL PARK, NY 12018
Phone 518-966-8503
Manager: TOM MAY
580 OLD PLANK ROAD
GREENVILLE, NY 12083
Phone 518-966-8503

Airport Operational Statistics

Aircraft based on the field: 27
Single engine airplanes: 13
Gliders airplanes: 13
Ultralights: 1
    
Aircraft operations: avg 50/week *
85% local general aviation
11% transient general aviation
4% military
* for 12-month period ending 30 June 2020

Additional Remarks

A30A-12 RGT TFC FOR GLIDERS RY 12 ONLY.
EXTENSIVE GLIDER ACTIVITY, ESPECIALLY ON WEEKENDS.
RY 12 ORCHARDS 100 FT LEFT & 112 FT RIGHT RY CNTRLN & 59 FT TREES IN APCH TO RY 288 FT FM THLD.
RGT TFC FOR GLIDERS RY 12 ONLY.
CONTACT AIRPORT MANAGER FOR FIELD CONDITIONS DEC 1 -APR 1; PH. 518-966-8503
FOR CD CTC ALBANY APCH AT 518-862-2299.

Instrument Procedures

There are no published instrument procedures at 1I5.

Some nearby airports with instrument procedures:

4B0 - South Albany Airport (16 nm NE)
1B1 - Columbia County Airport (16 nm E)
20N - Kingston-Ulster Airport (23 nm S)
KALB - Albany International Airport (26 nm NE)
KSCH - Schenectady County Airport (30 nm N)
 
Loc | Ops | Rwys | IFR | FBO | Links
Com | Nav | Svcs | Stats | Notes
Area around 1I5 (Freehold Airport)
 
Road maps at: MapQuest Bing Google
 
Aerial photo
WARNING: Photo may not be current or correct
Aerial photo of 1I5 (Freehold Airport)
Photo courtesy of Adam Pass, www.birddogaerials.com
Photo taken 25-Feb-2009

Do you have a better or more recent aerial photo of Freehold Airport that you would like to share? If so, please send us your photo.

 
Sectional chart

 
Airport distance calculator
Flying to Freehold Airport? Find the distance to fly.

From to 1I5

Sunrise and sunset
Times for 02-Feb-2023
 Local
(UTC-5)
 Zulu
(UTC)
Morning civil twilight06:4011:40
Sunrise07:1012:10
Sunset17:1022:10
Evening civil twilight17:4022:40

Current date and time
Zulu (UTC)  02-Feb-2023 11:11:14
Local (UTC-5)  02-Feb-2023 06:11:14
 
METAR
KALB 
26nm NE 
021051Z 17006KT 10SM FEW033 BKN130 BKN250 M07/M12 A3021 RMK AO2 SLP235 T10671117 $
KSCH 
30nm N 
020255Z 21004KT 15SM CLR M08/M14 A3026 RMK LAST
KPSF 
35nm E 
021054Z AUTO 24005KT 10SM CLR M11/M14 A3014 RMK AO2 SLP228 T11061144
KNY0 
40nm N 
021038Z AUTO 00000KT 10SM OVC120 M09/M13 A3015 RMK AO2
KAQW 
45nm NE 
021052Z AUTO 27007KT 10SM CLR M06/M12 A3018 RMK AO2 SLP229 T10611117
KPOU 
45nm S 
021053Z AUTO 00000KT 10SM CLR M08/M11 A3024 RMK AO2 SLP239 T10831106 $
TAF
KALB 
26nm NE 
020714Z 0207/0306 17005KT P6SM SCT050 BKN120 FM021200 17007KT P6SM SCT100 FM021700 17011G17KT P6SM FEW080 FM030300 23010G18KT P6SM SCT050 PROB30 0303/0306 29020G32KT 2SM -SHSN BR BKN015
NOTAMs
Click for the latest NOTAMs
NOTAMs are issued by the DoD/FAA and will open in a separate window not controlled by AirNav.

 

 
 

Where to Eat: Catering, Restaurants, Food shops

  
 Business Name 
 
 Contact 
 
 Services / Description 
 
Distance
 
Comments
  
Freehold Country Restaurant and Pub 518-634-7454
[web site]
Catering, Internet access, Restrooms, Restaurant

More info about Freehold Country Restaurant and Pub
1 mile
free shuttle
 
   write
 

Would you like to see your business listed on this page?

 If your business provides an interesting product or service to pilots, flight crews, aircraft, or users of the Freehold Airport, you should consider listing it here.  To start the listing process, click on the button below
 
Add a business
 

Other Pages about Freehold Airport

Update a link
 
Copyright © AirNav, LLC. All rights reserved. Privacy Policy  Contact